Location: Clyde
(45.1830°S, 169.3170°E)
Time: 16:44:10
(UTC+12:00)

H-2A R/B - Pass Details

Date: 14 May 2021
Orbit: 529 x 651 km, 98.3° (Epoch: 16 June)

Event Time Altitude Azimuth Distance (km) Brightness Sun altitude
Exits shadow 19:33:41 31° 6° (N) 958 3.5 -22.6°
Drops below altitude 10° 19:35:49 10° 356° (N) 1,790 5.0 -23.0°
Sets 19:37:56 0° 352° (N) 2,677 6.0 -23.4°
